Tracking 35331 objects as of 17-Sep-2026
HD Live streaming from Space Station
objects crossing your sky now

COSMOS 1813 DEB


COSMOS 1813 DEB is no longer on orbit


NORAD ID: 17930
Int'l Code: 1987-004DX
Launch date: January 15, 1987
Source: Commonwealth of Independent States (former USSR) (CIS)
Launch site: PLESETSK MISSILE AND SPACE COMPLEX (PKMTR)
Decay date: 1988-01-10

Note: This is SATELLITE DEBRIS
Your satellite tracking list
Your tracking list is empty




NASA's NSSDC Master Catalog

Two Line Element Set (TLE):
1 17930U 87004 DX 88009.09080231  .03144409 +83530-5 +72399-3 0  9999
2 17930 072.7883 147.4909 0019284 280.8298 080.8683 16.29201783050784
Source of the keplerian elements: AFSPC